Weather Roundup
Issued by NWS Corpus Christi, TX

Home | Current Version | Previous Version | Text Only | Print | Product List | Glossary On
Versions: 1 2 3 4 5 6 7 8 9 10 11 12 13 14 15 16 17 18 19 20 21 22 23 24 25 26 27 28 29 30 31 32 33 34 35 36 37 38 39 40 41 42 43 44 45 46 47 48 49 50
000
ASUS44 KCRP 100510
HRRCRP

SOUTH TEXAS REGIONAL WEATHER ROUNDUP
NATIONAL WEATHER SERVICE CORPUS CHRISTI TX
1100 PM CST FRI DEC 09 2016


TXZ229>244-100600-
...CORPUS CHRISTI AREA OBSERVATIONS...

CITY           SKY/WX    TMP DP  RH WIND       PRES   REMARKS
CORPUS CHRISTI CLOUDY    48  33  56 N10       30.50S
NAS CORPUS CHR CLOUDY    49  37  63 N15       30.49S
ROCKPORT       CLOUDY    48  33  56 N10       30.50S
KINGSVILLE NAS CLOUDY    47  35  63 N6        30.51
ALICE          CLOUDY    46  33  60 NW3       30.51R
ORANGE GROVE   CLOUDY    47  34  60 NW3       30.52R
FALFURRIAS     CLOUDY    46  30  53 NW5       30.51R
$$

...VICTORIA AREA OBSERVATIONS...

CITY           SKY/WX    TMP DP  RH WIND       PRES   REMARKS
VICTORIA       CLOUDY    44  34  67 N6        30.52S
BEEVILLE       CLOUDY    46  36  67 N3        30.51S
PLEASANTON     CLOUDY    44  26  49 CALM      30.52S
SAN ANTONIO    CLOUDY    41  26  55 CALM      30.50S
$$

...LAREDO AREA OBSERVATIONS...

CITY           SKY/WX    TMP DP  RH WIND       PRES   REMARKS
LAREDO         CLOUDY    46  30  53 SE6       30.51S
COTULLA        CLOUDY    48  27  44 SE6       30.50S
DEL RIO        CLOUDY    42  30  62 E8        30.45S
MCALLEN        CLOUDY    48  31  51 NW7       30.50R
HEBBRONVILLE   CLOUDY    44  26  51 CALM      30.51S
$$

...OTHER TEXAS OBSERVATIONS...

CITY           SKY/WX    TMP DP  RH WIND       PRES   REMARKS
BROWNSVILLE    CLOUDY    46  34  62 NW14      30.45S
HOUSTON        CLOUDY    45  28  51 NE7       30.52S
COL. STATION   CLOUDY    43  26  51 SE5       30.52S
AUSTIN         MOCLDY    38  31  76 CALM      30.52R
WACO           CLOUDY    38  29  70 SE5       30.52R
FORT WORTH     PTCLDY    33  21  61 CALM      30.50S
WICHITA FALLS  CLOUDY    35  17  47 SE8       30.47R
LUBBOCK        CLOUDY    30  26  85 S9        30.28F
EL PASO        PTCLDY    39  30  70 CALM      30.31R
$$

...MARINE OBSERVATIONS...

STATION/POSITION TIME  SKY/WX   TEMP    WIND        PRES    VSBY  WAVE   SWELL
                                AIR SEA DIR/SP/G                  HT/PER HT/PER
                 (UTC)          (F)     (DEG/KT/KT) (MB)    (MI)  (FT/S) (FT/S)
PORT ARANSAS     0500            49 60  360/ 11/ 13 1032.2R
BUOY 90 E PORT A 0450            61 76   50/ 16/ 17 1031.1R         7/ 8   5/ 8
BUOY 45 SE BAFFI 0350            63 75   60/ 14/ 17 1029.7         10/ 9   8/ 9
BUOY 200 E PT IS 0450            68 77   70/ 21/ 27 1027.1R        10/ 9   5/ 9
BUOY 15 E GALVES 0350            52 64   30/ 12/ 16 1032.9          3/ 7   2/ 7
$$




USA.gov is the U.S. government's official web portal to all federal, state and local government web resources and services.